Find Starlink 34564

NORAD ID: 64852 Int'l Des: 2025-152 Owner: SPXS Country: US Constellation: starlink operational
LEOCIRCULARRETROGRADESSO

現在のビュー

3D地球を読み込み中...

About Starlink 34564

Starlink 34564 (NORAD 64852) is a starlink constellation satellite (v2 mini) launched Jul 19, 2025 by SPXS of US. It operates in LEO, CIRCULAR, RETROGRADE, SSO orbit with a mass of 575.00 kg.

次回通過

Passes for default location (London). Set your location on the main map for personalized predictions.

高度履歴

Loading altitude history...

軌道要素

1 64852U 25152L 26263.47231462 .00011520 00000-0 35855-3 0 9996
2 64852 97.2839 114.0895 0002011 87.4996 272.6477 15.33450475 64822
Epoch: Sep 20, 2026 • Age: 12 hours

現在のステータス

高度 486.1 km
遠地点 / 近地点 N/A
速度 7.62 km/s
衛星直下点 -50.07°S, 63.51°W
打ち上げ日 Jul 19, 2025
運用期間 1.1 years
タイプ internet

技術仕様

分類 Payload
質量 575.00 kg
乾燥質量 530.00 kg
長さ 0.30 m
スパン 29.00 m
形状 ? Box + pan
製造者 SPXS
バスタイプ Starlink V2MO
フェーズステータス In Orbit
所有者/国 SPXS/US

Most Searched